Showing default

SIT-HSE, 61763

Orbit data source: Space-Track

SIT-HSE, 61763 is a Commonwealth of Independent States-origin payload satellite in SSO that was launched on Mon, 04 Nov 2024 UTC via a SOYUZ-2-1B launch vehicle from the Vostochny Cosmodrome (VOSTO). Payload-class satellites include a variety of spacecraft equipped with specific instruments for various scientific and technological missions. These include communications satellites like Starlink; space stations such as the ISS; scientific satellites like the Hubble; Earth observation satellites from companies like Planet Labs, Umbra, and HawkEye 360; GPS; miniature CubeSats for education and research; and military/defense satellites.

Loading next visibility...
Identifier
61763, 2024-199AE
Orbit
SSO
Country
Flag of CISCIS
Related business
Manufacturer
Sputniks
Mission
Operational Amateur Technology
Bus & Motor
CUBESAT 3U, Unknown motor
Mass
3 kg wet, 3 kg dry
Launch date (UTC)
2024-11-04 (1 year ago)
Launch vehicle
SOYUZ-2-1B
Launch site
Vostochny Cosmodrome (VOSTO)
Object type
Payload
Rocket body
Debris
Shape & HBR
Box, 0.1 m
Radar Cross Section
0.035 m², Small (<0.1 m²)

Expand to show TLE details & history
Last TLE update: 9 hours ago

TLE from 9 hours ago
0 SIT-HSE
1 61763U 24199AE  26061.82587442  .00025648  00000-0  50773-3 0  9993
2 61763  97.3147 296.7162 0004903 334.4235  25.6772 15.47054699121114
Epoch: 2026-03-02T19:49Z
TLE epoch observation values (Epoch: 2026-03-02T19:49:15.549Z)
Latitude
-0.00002°
Longitude
-161.21231°
Altitude
425.47 km
Speed
7.658 km/s
True Right ascension
19h 46m 51s
True Declination
0° 00' 00"
Sunlit
Object was in daylight at epoch
Visualization orbit readout
Latitude
Unknown
Longitude
Unknown
Altitude
Unknown
Speed
Unknown
Apparent Right ascension
Unknown
Apparent Declination
Unknown
Sunlit
N/A
Visualization observer readout
Local Sidereal Time
08:58:50
Azimuth
Unknown
Elevation
Unknown
Doppler factor
Unknown
Orbital elements
Apogee altitude
425.608 km
Perigee altitude
418.939 km
Semi-major axis
6,800.41 km
Eccentricity
0.00049
Inclination
97.3147°
RAAN
296.7162°
Arg. of periapsis
334.4235°
True anomaly
25.70156°
Mean anomaly
25.6772°
Eccentric anomaly
25.68938°
Mean motion
3.87026 °/min
Orbital period
93.02 mins
BSTAR
0.00050773
Loading maneuver chart data...
Computing Atmospheric mass density...
Loading historical data...
Loading historical data...
Loading historical data...
Loading historical data...
Loading historical data...
Loading historical data...
Loading historical data...

Documentation

Showing up to 5 results
|